Location: Ajisawe
(8.4333°N, 4.3833°E)
Time: 19:53:03
(UTC+00:00)

Altair - Visible Passes

Search period start: 17 April 2021 00:00
Search period end: 27 April 2021 00:00
Orbit: 1501 x 1683 km, 47.2° (Epoch: 17 April)

Date Brightness Start Highest point End Pass type
(mag) Time Alt. Az. Time Alt. Az. Time Alt. Az.
17 Apr 9.0 02:07:26 26° ESE 02:07:26 26° ESE 02:14:31 10° ENE visible
17 Apr 7.6 04:05:30 29° SW 04:11:17 69° NW 04:21:05 10° NNE visible
18 Apr 9.3 01:44:14 21° ESE 01:44:14 21° ESE 01:48:48 10° E visible
18 Apr 7.5 03:42:18 45° SW 03:46:05 76° NW 03:55:58 10° NE visible
19 Apr 9.6 01:20:58 15° E 01:20:58 15° E 01:22:59 10° E visible
19 Apr 7.5 03:19:02 65° SW 03:20:52 84° NW 03:30:50 10° NE visible
20 Apr 7.4 02:55:39 88° SE 02:55:40 88° SE 03:05:39 10° NE visible
20 Apr 8.8 04:53:53 10° W 05:00:56 21° NW 05:07:53 10° N visible
21 Apr 7.8 02:32:12 65° ENE 02:32:12 65° ENE 02:40:27 10° NE visible
21 Apr 8.7 04:30:15 16° W 04:35:36 24° NW 04:43:05 10° N visible
22 Apr 8.3 02:08:42 47° ENE 02:08:42 47° ENE 02:15:14 10° NE visible
22 Apr 8.6 04:06:43 22° WNW 04:10:19 27° NW 04:18:14 10° N visible
23 Apr 8.8 01:45:05 33° ENE 01:45:05 33° ENE 01:49:58 10° NE visible
23 Apr 8.4 03:43:07 28° WNW 03:45:01 30° NW 03:53:21 10° NNE visible
24 Apr 9.2 01:21:25 24° ENE 01:21:25 24° ENE 01:24:40 10° NE visible
24 Apr 8.3 03:19:26 33° NW 03:19:44 33° NW 03:28:25 10° NNE visible
25 Apr 9.5 00:57:40 16° ENE 00:57:40 16° ENE 00:59:20 10° NE visible
25 Apr 8.3 02:55:42 36° NNW 02:55:42 36° NNW 03:03:27 10° NNE visible
26 Apr 9.8 00:33:53 10° ENE 00:33:53 10° ENE 00:33:57 10° ENE visible
26 Apr 8.5 02:31:53 36° NNW 02:31:53 36° NNW 02:38:28 10° NNE visible
